User: anonymous   Login
Location: Unspecified
(0.0000°N, 0.0000°E)
Time: 04:10:51
(UTC+02:00)
Language:

Delta 2 Rocket - Orbit

View from above orbital plane
View from above orbital plane
View from above satellite
View from above satellite

Ground track
Ground track

The orbit data is extracted from the following two-line orbital elements,

1 20453U 90008B   17234.35816935 +.00002981 +00000-0 +17208-3 0  9999
2 20453 035.6244 201.5034 0288693 358.4476 001.5325 14.83330363458038
Epoch (UTC): 22 August 2017 08:35:45
Eccentricity: 0.0288693
inclination: 35.6244°
perigee height: 417 km
apogee height: 821 km
right ascension of ascending node: 201.5034°
argument of perigee: 358.4476°
revolutions per day: 14.83330363
mean anomaly at epoch: 1.5325°
orbit number at epoch: 45803

The dashed part of the orbit path shows where the satellite is in the earth's shadow,  

DLR